sat.trackr.live / text

‹ back to catalog

STARLINK-11693 [DTC]

NORAD 63763 · 2025-089N

PAYLOAD ACTIVE UNKNOWN

§ Identity

Operator
Country
US
Launch date
2025-04-29
Launch site
AFETR
Launch vehicle
Mass (kg)
RCS (m²)

Purposes: comms

External: N2YO · Heavens-Above · Gunter

§ Orbital elements

Epoch: 2026-09-20T20:52:26.001696Z

Period
91.67 min
Inclination
43.0009°
Eccentricity
0.0001959
Mean motion
15.70812606 rev/d
Perigee alt
355.3 km
Apogee alt
357.9 km
Semi-major
6,734.7 km
B*
1.3562e-3
RAAN
195.6357°
Arg perigee
307.3194°
Mean anomaly
52.7494°
Rev number
8,072

§ Raw data

STARLINK-11693 [DTC]1 63763U 25089N   26263.86974539  .00177127  00000+0  13562-2 0  99922 63763  43.0009 195.6357 0001959 307.3194  52.7494 15.70812606 80724

JSON: /api/v1/satellites/63763 · /tle

For live sub-satellite position, see the globe view (requires WebGL).

§ Visibility from observer

Set your observer location to see the next 7 days of passes ≥ 10°. The values pass through the URL so the page stays shareable.

No JS? Fill the form by hand. The geolocation button needs JavaScript.